Regional Weather Roundup
Issued by NWS Midland/Odessa, TX

Skip options and go directly to product.
Home | Oldest Version | Previous Version | Current Version | All | Graphics & Text | Save Text | Print | Product List | Glossary On

Skip product version selection by date and time.   
722
ASUS44 KMAF 281610
RWRMAF
MIDLAND AREA WEATHER ROUNDUP
NATIONAL WEATHER SERVICE MIDLAND TX
1100 AM CDT SUN AUG 28 2016

...IN SOUTHWEST TEXAS AND SOUTHEAST NEW MEXICO...

CITY           SKY/WX    TMP DP  RH WIND       PRES   REMARKS
ALPINE         SUNNY     75  62  62 SE3       30.25S
ANDREWS        NOT AVBL
ARTESIA        MOSUNNY   73  59  60 CALM      30.17F
BIG SPRING     PTSUNNY   78  67  70 CALM      30.17S
CARLSBAD       SUNNY     74  62  66 CALM      30.14F
DRYDEN           N/A     78  70  76 SE6       30.07F
FORT STOCKTON  SUNNY     82  64  54 W6        30.12S
GUAD PASS      NOT AVBL
HOBBS          SUNNY     75  63  64 E13       30.18F
MARFA          SUNNY    N/A N/A N/A NE5         N/A
MIDLAND AIRPK  PTSUNNY   80  65  60 SE5       30.14F
MIDLAND INTL   PTSUNNY   79  66  64 E7        30.14S
ODESSA         CLOUDY    78  66  66 S6        30.15S
PECOS          SUNNY     77  64  65 W5        30.10S
PRESIDIO       NOT AVBL
SEMINOLE       SUNNY     77  61  57 E5        30.17F
SNYDER           N/A     78  67  67 CALM      30.14S
WINK           SUNNY     80  64  58 SE7       30.10S
$$
...OTHER STATIONS IN TEXAS...

CITY           SKY/WX    TMP DP  RH WIND       PRES   REMARKS
ABILENE        PTSUNNY   83  72  69 W3        30.11S
AMARILLO       MOSUNNY   73  59  61 E6        30.17S
AUSTIN         PTSUNNY   81  72  74 NE10      30.04S
BROWNSVILLE    MOSUNNY   88  74  63 NW5       29.96S
CORPUS CHRISTI MOSUNNY   87  77  72 N8        29.99R
DALLAS FTW     MOSUNNY   86  70  58 VRB5      30.08S
DEL RIO        CLOUDY    82  72  71 E8        30.04R
EL PASO        MOSUNNY   75  61  61 NE6       30.16F
HOUSTON INT    CLOUDY    80  73  79 NE9       30.01R
LUBBOCK        CLOUDY    76  59  55 S6        30.15F
SAN ANGELO     SUNNY     83  70  64 S7        30.10F
SAN ANTONIO    PTSUNNY   83  71  67 NE5       30.05S
WACO           MOSUNNY   84  73  69 NE7       30.06F
WICHITA FALLS  NOT AVBL
$$
...OTHER LOCATIONS IN NEW MEXICO...

CITY           SKY/WX    TMP DP  RH WIND       PRES   REMARKS
ALAMAGORDO     SUNNY     73  55  53 W3        30.20S
ALBUQUERQUE    MOSUNNY   67  50  54 NW7       30.28F
CANNON AFB     PTSUNNY   73  60  64 W14       30.20R
CLOVIS         SUNNY     73  59  60 W13       30.19S
HOLLOMAN AFB   SUNNY     72  60  64 W6        30.17F
ROSWELL        CLOUDY    76  57  51 W5        30.16F
RUIDOSO          N/A     66  48  52 NE3       30.36S
SANTA FE       SUNNY     66  47  50 N13       30.32R
TRUTH OR CONSE SUNNY     72  50  45 VRB3      30.23S
TUCUMCARI      SUNNY     79  56  45 SW13G21   30.17F
$$

USA.gov is the U.S. government's official web portal to all federal, state and local government web resources and services.